logo
Search for airport 
image banner adimage banner adimage banner ad
image banner ad

30PN - Pittsburgh Children's Hospital

Located in Pittsburgh, United States

ICAO - 30PN, IATA -

Data provided by Airmate  

General information

Coordinates: N40°27'60" W79°57'10"
Elevation is 1088 feet MSL.
Magnetic variation is -09° East
View others Airports in Pennsylvania

Operational data

Special qualification required
Current time UTC:
Current local time:
Weather at : KAGC - Allegheny County ( 13 km )
METAR: KAGC 261453Z 26008G16KT 10SM SCT025 BKN035 14/08 A2975 RMK AO2 SLP076 T01440083 51014
TAF: KAGC 261136Z 2612/2712 24010KT P6SM BKN025 FM261400 26015G25KT P6SM BKN040 FM270000 26010KT P6SM BKN050
View NOTAMs / SUP AIP / TFR affecting this airport [VIEW]
Communications frequencies: [VIEW]

Runways:

Airport contact information

Address: Pittsburgh United States

Satellite view of 30PN